Location: G�ppingen
(0.0000°N, 0.0000°E)
Time: 21:45:24
(UTC+00:00)

Envisat - Visible Passes

Search period start: 20 May 2019 00:00
Search period end: 30 May 2019 00:00
Orbit: 764 x 766 km, 98.2° (Epoch: 19 May)

Date Brightness Start Highest point End Pass type
(mag) Time Alt. Az. Time Alt. Az. Time Alt. Az.
20 May 3.1 18:37:55 10° SSE 18:42:52 54° ENE 18:47:48 10° N visible
21 May 5.0 19:40:52 10° SSW 19:44:58 25° WSW 19:49:04 10° NW visible
22 May 3.2 19:03:15 10° S 19:08:19 72° WSW 19:13:22 10° NNW visible
23 May 3.5 18:26:57 10° SE 18:31:40 39° ENE 18:36:21 10° N visible
23 May 5.8 20:08:40 10° WSW 20:10:23 12° WSW 20:12:06 10° W visible
24 May 4.5 19:29:13 10° SSW 19:33:47 34° WSW 19:38:18 10° NW visible
25 May 2.9 18:52:02 10° SSE 18:57:08 84° ENE 19:02:11 10° N visible
26 May 3.9 18:16:07 10° SE 18:20:28 29° ENE 18:24:47 10° NNE visible
26 May 5.6 19:56:07 10° SW 19:59:12 16° WSW 20:02:18 10° WNW visible
27 May 4.0 19:17:44 10° S 19:22:34 46° WSW 19:27:24 10° NNW visible
28 May 3.0 18:40:55 10° SSE 18:45:55 61° ENE 18:50:54 10° N visible
29 May 5.2 19:44:08 10° SSW 19:48:00 22° WSW 19:51:53 10° NW visible
